CZ-6A DEB

Satellite information

Favourite Embed

Satellite Type and Status

DEBRISIN ORBIT

Key statistics

Satellite CZ-6A DEB at a glance.

Uptime

495

Days in orbit

Revolutions

≈ 14.3

Per day

Orbit

LEO

Low Earth Orbit

Inclination

88.9

Latest

Satellite identification and parameters

Extended collection of information and parameters for CZ-6A DEB.

Object identification

Identified? True

Debris? True

Object name: CZ-6A DEB

International designator: 2024-140GQ

Object number (NORAD): 60813

Object ID (CCSDS): 60813

Country: PEOPLES REPUBLIC OF CHINA (PRC)

Current information (Y/N): Y

RCS size: SMALL

Orbital parameters

Period: 100.902 minutes

Inclination: 88.9217 deg

SMA: 7179.498 km

Apoapsis: 819.825 km

Periapsis: 782.901 km

RAAN: 290.4149 deg

Eccentricy: 0.00257152

Argument of periapsis: 5.4512 deg

Mean anomaly: 354.6957 deg

Mean motion: 14.27123703 rev/day

Mean motion (dot): 0.00002305 rev/day2

B* drag term: 0.00093641006 1/REarth

Two-line elements (TLE)

Creation date: Dec. 14, 2025, 3:07 a.m.

Reference frame: TEME

Reference center: EARTH

Epoch: Dec. 13, 2025, 1:54 p.m. UTC

TLE line 0: 0 CZ-6A DEB

TLE line 1: 1 60813U 24140GQ 25347.57984723 .00002305 00000-0 93641-3 0 9991

TLE line 2: 2 60813 88.9217 290.4149 0025715 5.4512 354.6957 14.27123703 69689

Live tracking on map

Real-time ground track for satellite CZ-6A DEB.

In-orbit conjunctions

A list of the most updated potential collisions computed for object CZ-6A DEB.

Target Orbit TCA Probability of collision Miss distance Type
CZ-6A DEB LEO 2025-09-06 13:25:14 0.0001473555 572.0 (m) DEBRIS
FENGYUN 1C DEB SSO 2025-03-15 05:33:41 0.0002578144 107.0 (m) DEBRIS
CZ-6A DEB LEO 2025-01-13 08:20:07 0.000756418 355.0 (m) DEBRIS
CZ-6A DEB LEO 2025-01-05 11:40:56 0.0005127544 780.0 (m) DEBRIS
COSMOS 2251 DEB LEO 2024-12-14 16:58:14 0.002007782 141.0 (m) DEBRIS

Associated space launch

18 Low Earth Orbit communication satellites with Ku, Q and V band payloads for the G60 constellation operated by Shanghai Spacecom Satellite Technology (SSST) with funding backed by the Shanghai local government. Initial constellation will consist of 1296 satellites by 2027 with long term plans to expand it to 12000 satellites.

CZ-6A DEB was lifted into orbit during the mission ‘Long March 6A | G60 Polar Group 01’, on board a Long March 6A space rocket.

The launch took place on Aug. 6, 2024, 6:42 a.m. from Launch Complex 9A.

For more information about the launch, click the button.

Launch to space Long March 6A | G60 Polar Group 01
Long March 6A | G60 Polar Group 01

Agency: N/A

Status: Launch Successful

Launch date: Aug. 6, 2024, 6:42 a.m. UTC

Rocket: Long March 6A

Launch pad: Launch Complex 9A

Location: Taiyuan Satellite Launch Center, People's Republic of China

...

Latest news about this satellite

News about space launch
Brightness of first Chinese broadband constellation satellites alarms astronomers

The first satellites of a Chinese broadband constellation are significantly brighter than those of Western systems, posing a new challenge for astronomers.

News about space launch
Chinese rocket stage breaks up into cloud of more than 700 pieces of space debris

HELSINKI — A Chinese Long March 6A rocket’s upper stage has fragmented into a cloud of over 700 pieces of space debris, adding to concerns about long-term orbital safety. China […]

News about space launch
China's Thousand Sails Megaconstellation Kicks Off with Dangerous Debris Field

China's Thousand Sails Megaconstellation Kicks Off with Dangerous Debris Field


Newsletter sign-up

Weekly statistics, charts and insights to help you stay on top of the space industry.